Date String (YYYY-MM-DD hh:mm:ss) UTC,Instrument flags,Ambient pressure (hPa),Sample flow (lpm),Bypass flow (lpm),Sample temperature (°C),Ambient temperature (°C),ASC tube jacket temperature (°C),LED temperature (°C),Box temperature (°C),Sample RH (%),Span deviation,Mass concentration (μg/m³),Mass concentration (μg/m³),Mass concentration (μg/m³)
DateTimeUTC,F1_M11,P_M11,Q1_M11,Q2_M11,T1_M11,T2_M11,T3_M11,T4_M11,T5_M11,U1_M11,ZSPAN_M11,X0_M11,X2_M11,X1_M11
2021-12-09 01:00:00,,0812.1,5.01,0.00,23.1,22.3,00.0,32.2,24.7,13.3,0000.0,0003.30,0000.65,0000.20
2021-12-09 01:01:00,,0812.1,5.00,0.00,23.1,22.2,00.0,32.2,24.8,13.2,0000.0,0003.50,0000.66,0000.20
2021-12-09 01:02:00,,0812.1,4.98,0.00,23.1,22.3,00.0,32.2,24.8,13.1,0000.0,0003.74,0000.64,0000.21
2021-12-09 01:03:00,,0812.1,4.99,0.00,23.1,22.3,00.0,32.2,24.8,13.0,0000.0,0003.67,0000.61,0000.20
2021-12-09 01:04:00,,0812.1,5.00,0.00,23.1,22.3,00.0,32.2,24.8,12.9,0000.0,0003.53,0000.61,0000.20
2021-12-09 01:05:00,,0812.1,5.00,0.00,23.1,22.3,00.0,32.2,24.8,12.9,0000.0,0003.58,0000.57,0000.19
2021-12-09 01:06:00,,0812.1,4.98,0.00,23.1,22.3,00.0,32.2,24.8,13.1,0000.0,0003.81,0000.48,0000.19
2021-12-09 01:07:00,,0812.1,5.01,0.00,23.1,22.3,00.0,32.2,24.8,13.3,0000.0,0003.88,0000.48,0000.19
2021-12-09 01:08:00,,0812.2,5.01,0.00,23.1,22.3,00.0,32.2,24.8,12.8,0000.0,0003.83,0000.48,0000.19
2021-12-09 01:09:00,,0812.3,5.00,0.00,23.1,22.3,00.0,32.2,24.8,12.5,0000.0,0003.71,0000.46,0000.19
2021-12-09 01:10:00,,0812.3,4.99,0.00,23.1,22.3,00.0,32.2,24.8,12.0,0000.0,0003.06,0000.43,0000.20
2021-12-09 01:11:00,,0812.1,4.99,0.00,23.2,22.3,00.0,32.2,24.9,12.2,0000.0,0002.70,0000.44,0000.20
2021-12-09 01:12:00,,0812.2,5.01,0.00,23.2,22.3,00.0,32.2,24.9,12.6,0000.0,0003.18,0000.44,0000.20
2021-12-09 01:13:00,,0812.1,5.00,0.00,23.2,22.3,00.0,32.2,24.9,13.2,0000.0,0002.91,0000.45,0000.21
2021-12-09 01:14:00,,0811.9,5.00,0.00,23.2,22.4,00.0,32.2,25.0,13.5,0000.0,0002.83,0000.47,0000.22
2021-12-09 01:15:00,,0812.1,5.01,0.00,23.2,22.4,00.0,32.2,24.9,13.7,0000.0,0002.83,0000.48,0000.22
2021-12-09 01:16:00,,0812.1,5.00,0.00,23.2,22.3,00.0,32.2,24.9,13.7,0000.0,0002.94,0000.53,0000.23
2021-12-09 01:17:00,,0812.1,4.98,0.00,23.2,22.3,00.0,32.2,24.9,13.7,0000.0,0002.20,0000.55,0000.24
2021-12-09 01:18:00,,0812.1,5.00,0.00,23.2,22.3,00.0,32.2,24.9,13.6,0000.0,0002.21,0000.53,0000.24
2021-12-09 01:19:00,,0812.0,5.00,0.00,23.2,22.4,00.0,32.2,24.9,13.4,0000.0,0002.21,0000.52,0000.24
2021-12-09 01:20:00,,0812.0,5.01,0.00,23.2,22.4,00.0,32.2,25.0,13.5,0000.0,0002.27,0000.54,0000.24
2021-12-09 01:21:00,,0812.1,5.01,0.00,23.2,22.4,00.0,32.2,24.9,13.5,0000.0,0002.45,0000.59,0000.23
2021-12-09 01:22:00,,0812.2,5.00,0.00,23.2,22.3,00.0,32.2,24.9,13.6,0000.0,0002.28,0000.60,0000.23
2021-12-09 01:23:00,,0812.1,4.99,0.00,23.2,22.3,00.0,32.2,24.9,13.5,0000.0,0001.50,0000.59,0000.23
2021-12-09 01:24:00,,0812.0,5.00,0.00,23.2,22.3,00.0,32.2,24.9,13.3,0000.0,0001.87,0000.61,0000.22
2021-12-09 01:25:00,,0811.8,4.99,0.00,23.2,22.3,00.0,32.2,24.9,13.2,0000.0,0001.93,0000.62,0000.22
2021-12-09 01:26:00,,0811.8,5.02,0.00,23.2,22.3,00.0,32.2,24.9,13.1,0000.0,0002.01,0000.65,0000.22
2021-12-09 01:27:00,,0811.8,4.99,0.00,23.1,22.2,00.0,32.2,24.8,13.2,0000.0,0002.22,0000.63,0000.21
2021-12-09 01:28:00,,0811.8,5.01,0.00,23.1,22.2,00.0,32.2,24.8,13.2,0000.0,0002.40,0000.64,0000.20
2021-12-09 01:29:00,,0811.7,5.00,0.00,23.1,22.2,00.0,32.2,24.8,13.2,0000.0,0002.64,0000.64,0000.20
2021-12-09 01:30:00,,0811.6,5.00,0.00,23.2,22.2,00.0,32.2,24.8,13.0,0000.0,0002.94,0000.68,0000.21
2021-12-09 01:31:00,,0811.7,5.01,0.00,23.1,22.2,00.0,32.2,24.9,12.8,0000.0,0002.99,0000.65,0000.21
2021-12-09 01:32:00,,0811.7,5.00,0.00,23.1,22.2,00.0,32.2,24.9,12.9,0000.0,0003.85,0000.65,0000.21
2021-12-09 01:33:00,,0811.7,4.99,0.00,23.1,22.2,00.0,32.2,24.8,12.9,0000.0,0004.50,0000.65,0000.21
2021-12-09 01:34:00,,0811.7,4.99,0.00,23.1,22.2,00.0,32.2,24.9,12.9,0000.0,0005.48,0000.65,0000.21
2021-12-09 01:35:00,,0811.6,4.99,0.00,23.2,22.2,00.0,32.2,24.9,12.8,0000.0,0005.36,0000.65,0000.20
2021-12-09 01:36:00,,0811.6,5.00,0.00,23.2,22.2,00.0,32.2,24.9,12.8,0000.0,0005.39,0000.70,0000.21
2021-12-09 01:37:00,,0811.5,5.00,0.00,23.2,22.3,00.0,32.2,24.9,12.7,0000.0,0005.43,0000.72,0000.21
2021-12-09 01:38:00,,0811.6,5.00,0.00,23.2,22.3,00.0,32.2,24.8,12.8,0000.0,0006.24,0000.76,0000.20
2021-12-09 01:39:00,,0811.7,4.99,0.00,23.2,22.3,00.0,32.2,24.9,12.9,0000.0,0006.45,0000.77,0000.20
2021-12-09 01:40:00,,0811.5,5.01,0.00,23.2,22.3,00.0,32.2,24.9,13.0,0000.0,0006.35,0000.80,0000.20
2021-12-09 01:41:00,,0811.7,5.00,0.00,23.2,22.3,00.0,32.2,24.9,12.9,0000.0,0006.24,0000.85,0000.19
2021-12-09 01:42:00,,0811.6,5.00,0.00,23.2,22.3,00.0,32.2,24.9,13.0,0000.0,0006.30,0000.92,0000.20
2021-12-09 01:43:00,,0811.5,5.00,0.00,23.1,22.3,00.0,32.2,24.8,13.1,0000.0,0006.55,0001.01,0000.21
2021-12-09 01:44:00,,0811.6,5.01,0.00,23.1,22.2,00.0,32.2,24.8,13.2,0000.0,0006.90,0001.05,0000.21
2021-12-09 01:45:00,,0811.5,5.00,0.00,23.1,22.2,00.0,32.2,24.8,13.2,0000.0,0006.26,0001.12,0000.21
2021-12-09 01:46:00,,0811.5,4.99,0.00,23.1,22.2,00.0,32.2,24.8,13.2,0000.0,0006.31,0001.16,0000.21
2021-12-09 01:47:00,,0811.6,5.00,0.00,23.1,22.2,00.0,32.2,24.8,13.2,0000.0,0007.19,0001.16,0000.20
2021-12-09 01:48:00,,0811.6,5.00,0.00,23.1,22.2,00.0,32.2,24.7,13.2,0000.0,0008.86,0001.21,0000.20
2021-12-09 01:49:00,,0811.6,4.99,0.00,23.0,22.2,00.0,32.1,24.7,13.2,0000.0,0009.16,0001.18,0000.20
2021-12-09 01:50:00,,0811.5,5.00,0.00,23.0,22.2,00.0,32.1,24.8,13.1,0000.0,0008.93,0001.16,0000.20
2021-12-09 01:51:00,,0811.4,5.01,0.00,23.0,22.2,00.0,32.1,24.8,12.9,0000.0,0008.86,0001.14,0000.20
2021-12-09 01:52:00,,0811.2,5.00,0.00,23.1,22.3,00.0,32.1,24.8,12.9,0000.0,0009.60,0001.07,0000.20
2021-12-09 01:53:00,,0811.0,5.00,0.00,23.1,22.3,00.0,32.1,24.7,12.8,0000.0,0010.60,0001.08,0000.20
2021-12-09 01:54:00,,0811.2,4.99,0.00,23.1,22.3,00.0,32.1,24.8,12.8,0000.0,0011.70,0001.06,0000.19
2021-12-09 01:55:00,,0811.2,4.99,0.00,23.1,22.3,00.0,32.1,24.8,12.8,0000.0,0012.05,0001.08,0000.19
2021-12-09 01:56:00,,0811.1,5.00,0.00,23.0,22.3,00.0,32.1,24.8,12.9,0000.0,0012.02,0001.11,0000.18
2021-12-09 01:57:00,,0811.0,5.02,0.00,23.0,22.2,00.0,32.1,24.8,12.9,0000.0,0013.06,0001.23,0000.19
2021-12-09 01:58:00,,0811.1,4.99,0.00,23.0,22.1,00.0,32.1,24.8,12.9,0000.0,0013.21,0001.33,0000.19
2021-12-09 01:59:00,,0811.2,5.01,0.00,23.0,22.1,00.0,32.1,24.8,13.0,0000.0,0012.74,0001.38,0000.20
